Tracking 18032 objects as of 27-March-2017
HD Live streaming from Space Station
objects crossing your sky now

DELTA 1 R/B

Track DELTA 1 R/B now!
10-day predictions


NORAD ID: 4251
Int'l Code: 1969-101B
Perigee: -6,371.0 km
Apogee: -6,371.0 km
Inclination: 27.7 °
Period: 0.0 minutes
Semi major axis: 0 km
RCS: 1.8664 m2 (large)
Launch date: November 22, 1969
Source: United States (US)
Launch site: AIR FORCE EASTERN TEST RANGE (AFETR)

Note: This is a ROCKET BODY
Your satellite tracking list
Your tracking list is empty





NASA's NSSDC Master Catalog

Two Line Element Set (TLE):
1  4251U 69101B   17084.21594972 +.00000566 +00000-0 +22189-3 0  9990
2  4251 027.7352 103.3822 5641649 206.4765 108.0065 04.53663136524721
Source of the keplerian elements: AFSPC